QPF
0.00 0.00 0.00 0.00 0.00 0.00 0.00 0.00 0.00 0.01 0.01 0.02 0.01 0.01 0.00 0.00 0.00 0.00 0.00 0.00 0.00 0.01 0.02 0.02 0.03 0.04 0.05 0.04 0.02 0.01 0.00 0.00 0.00 0.00 0.00 0.00 0.00 0.00 0.00 0.00 0.00 0.00 0.00
0.00 0.00 0.00 0.00 0.00 0.00 0.00 0.00 0.00 0.01 0.01 0.01 0.01 0.01 0.01 0.00 0.00 0.00 0.00 0.00 0.00 0.01 0.03 0.04 0.05 0.06 0.05 0.03 0.02 0.01 0.00 0.00 0.00 0.00 0.00 0.00 0.00 0.00 0.00 0.00 0.00 0.00 0.00
0.00 0.00 0.00 0.00 0.00 0.00 0.00 0.00 0.00 0.00 0.00 0.01 0.01 0.01 0.00 0.00 0.00 0.00 0.00 0.00 0.00 0.01 0.02 0.03 0.04 0.04 0.03 0.03 0.02 0.01 0.00 0.00 0.00 0.00 0.00 0.00 0.00 0.00 0.00 0.00 0.00 0.00 0.00
0.00 0.00 0.00 0.00 0.00 0.00 0.00 0.00 0.00 0.00 0.00 0.00 0.00 0.00 0.00 0.00 0.00 0.00 0.00 0.00 0.00 0.00 0.01 0.01 0.01 0.01 0.02 0.01 0.00 0.00 0.00 0.00 0.00 0.00 0.00 0.00 0.00 0.00 0.00 0.00 0.00 0.00 0.00
0.00 0.00 0.00 0.00 0.00 0.00 0.00 0.00 0.00 0.00 0.00 0.00 0.00 0.00 0.00 0.00 0.00 0.00 0.00 0.00 0.00 0.00 0.00 0.00 0.00 0.01 0.01 0.00 0.00 0.00 0.00 0.00 0.00 0.00 0.00 0.00 0.00 0.00 0.00 0.00 0.00 0.01 0.01
0.00 0.00 0.00 0.00 0.00 0.00 0.00 0.00 0.00 0.00 0.00 0.00 0.00 0.00 0.00 0.00 0.00 0.00 0.00 0.00 0.00 0.00 0.00 0.00 0.00 0.00 0.00 0.00 0.00 0.00 0.00 0.00 0.00 0.00 0.00 0.00 0.00 0.00 0.00 0.00 0.00 0.01 0.01
0.00 0.00 0.00 0.00 0.00 0.00 0.00 0.00 0.00 0.00 0.00 0.00 0.00 0.00 0.00 0.00 0.00 0.00 0.00 0.00 0.00 0.00 0.00 0.00 0.00 0.00 0.00 0.00 0.00 0.00 0.00 0.00 0.00 0.00 0.00 0.00 0.00 0.00 0.00 0.01 0.01 0.01 0.01
0.00 0.00 0.00 0.00 0.00 0.00 0.00 0.00 0.00 0.00 0.00 0.00 0.00 0.00 0.00 0.00 0.00 0.00 0.00 0.00 0.00 0.00 0.00 0.00 0.00 0.00 0.00 0.00 0.00 0.00 0.00 0.00 0.00 0.00 0.00 0.00 0.00 0.00 0.01 0.02 0.02 0.02 0.03
0.00 0.00 0.00 0.00 0.00 0.00 0.00 0.00 0.00 0.00 0.00 0.00 0.00 0.00 0.00 0.00 0.00 0.00 0.00 0.00 0.00 0.00 0.00 0.00 0.00 0.00 0.00 0.00 0.00 0.00 0.00 0.00 0.00 0.00 0.00 0.00 0.00 0.00 0.01 0.02 0.02 0.02 0.03
0.00 0.00 0.00 0.00 0.01 0.01 0.00 0.00 0.00 0.00 0.00 0.00 0.00 0.00 0.00 0.00 0.00 0.00 0.00 0.00 0.00 0.00 0.00 0.00 0.00 0.00 0.00 0.00 0.00 0.00 0.00 0.00 0.00 0.00 0.00 0.00 0.00 0.00 0.01 0.01 0.01 0.01 0.01
0.00 0.00 0.00 0.00 0.01 0.01 0.01 0.00 0.00 0.00 0.00 0.00 0.00 0.00 0.00 0.00 0.00 0.00 0.00 0.00 0.00 0.00 0.00 0.00 0.00 0.00 0.00 0.00 0.00 0.00 0.00 0.00 0.00 0.00 0.00 0.00 0.00 0.00 0.00 0.00 0.00 0.00 0.00
0.00 0.00 0.00 0.00 0.00 0.00 0.01 0.00 0.00 0.00 0.00 0.00 0.00 0.00 0.00 0.00 0.00 0.00 0.00 0.00 0.00 0.00 0.00 0.00 0.00 0.00 0.00 0.00 0.00 0.00 0.00 0.00 0.00 0.00 0.00 0.00 0.00 0.00 0.00 0.00 0.00 0.00 0.00
0.00 0.00 0.00 0.00 0.00 0.00 0.00 0.00 0.00 0.00 0.00 0.00 0.00 0.00 0.00 0.00 0.00 0.00 0.00 0.00 0.00 0.00 0.00 0.00 0.00 0.00 0.00 0.00 0.00 0.00 0.00 0.00 0.00 0.00 0.00 0.00 0.00 0.00 0.00 0.00 0.00 0.00 0.00
0.00 0.00 0.00 0.00 0.00 0.00 0.00 0.00 0.00 0.00 0.00 0.00 0.00 0.00 0.00 0.00 0.00 0.00 0.00 0.00 0.00 0.00 0.00 0.00 0.00 0.00 0.00 0.00 0.00 0.00 0.00 0.00 0.00 0.00 0.00 0.00 0.00 0.00 0.00 0.00 0.00 0.00 0.00
0.00 0.00 0.00 0.00 0.01 0.00 0.00 0.00 0.00 0.00 0.00 0.00 0.00 0.00 0.00 0.00 0.00 0.00 0.00 0.00 0.00 0.00 0.00 0.00 0.00 0.00 0.00 0.00 0.00 0.00 0.00 0.00 0.00 0.00 0.00 0.00 0.00 0.00 0.00 0.00 0.00 0.00 0.00
0.00 0.00 0.00 0.00 0.00 0.01 0.00 0.00 0.00 0.00 0.00 0.00 0.00 0.00 0.00 0.00 0.00 0.00 0.00 0.00 0.00 0.00 0.00 0.00 0.00 0.00 0.00 0.00 0.00 0.00 0.00 0.00 0.00 0.00 0.00 0.00 0.00 0.00 0.00 0.00 0.00 0.00 0.00
0.00 0.00 0.00 0.00 0.00 0.00 0.00 0.01 0.00 0.00 0.00 0.00 0.00 0.00 0.00 0.00 0.00 0.00 0.00 0.00 0.00 0.00 0.00 0.00 0.00 0.00 0.00 0.00 0.00 0.00 0.00 0.00 0.00 0.00 0.00 0.00 0.00 0.00 0.00 0.00 0.00 0.00 0.00
0.00 0.00 0.00 0.00 0.00 0.00 0.01 0.01 0.01 0.00 0.00 0.01 0.01 0.01 0.01 0.01 0.00 0.00 0.00 0.00 0.00 0.00 0.00 0.00 0.00 0.00 0.00 0.00 0.00 0.00 0.00 0.00 0.00 0.00 0.00 0.00 0.00 0.00 0.00 0.00 0.00 0.00 0.00
0.00 0.00 0.01 0.00 0.00 0.00 0.01 0.02 0.01 0.01 0.02 0.02 0.03 0.02 0.01 0.02 0.01 0.00 0.00 0.00 0.00 0.00 0.00 0.00 0.00 0.00 0.00 0.00 0.00 0.00 0.00 0.00 0.00 0.00 0.00 0.00 0.00 0.00 0.00 0.00 0.00 0.00 0.00
0.00 0.00 0.00 0.01 0.00 0.00 0.01 0.02 0.02 0.01 0.02 0.03 0.03 0.03 0.03 0.02 0.01 0.01 0.00 0.00 0.00 0.00 0.00 0.00 0.00 0.00 0.00 0.00 0.00 0.00 0.00 0.00 0.00 0.00 0.00 0.00 0.00 0.00 0.00 0.00 0.00 0.00 0.00
0.00 0.00 0.00 0.01 0.01 0.00 0.01 0.01 0.01 0.01 0.02 0.02 0.02 0.03 0.03 0.02 0.02 0.02 0.01 0.00 0.00 0.00 0.00 0.00 0.00 0.00 0.00 0.00 0.00 0.00 0.00 0.00 0.00 0.00 0.00 0.00 0.00 0.00 0.00 0.00 0.00 0.00 0.00
0.00 0.00 0.00 0.00 0.01 0.00 0.00 0.00 0.01 0.01 0.01 0.01 0.02 0.02 0.02 0.03 0.04 0.04 0.03 0.02 0.01 0.01 0.00 0.00 0.00 0.00 0.00 0.00 0.00 0.00 0.00 0.00 0.00 0.00 0.00 0.00 0.00 0.00 0.00 0.00 0.00 0.00 0.00
0.00 0.00 0.00 0.00 0.01 0.01 0.00 0.01 0.01 0.00 0.00 0.01 0.01 0.02 0.03 0.05 0.05 0.05 0.03 0.02 0.01 0.01 0.00 0.00 0.00 0.00 0.00 0.00 0.00 0.00 0.00 0.00 0.00 0.00 0.00 0.00 0.00 0.00 0.00 0.00 0.00 0.00 0.00
0.00 0.00 0.00 0.00 0.01 0.01 0.00 0.00 0.00 0.00 0.00 0.00 0.01 0.02 0.03 0.04 0.03 0.03 0.03 0.02 0.01 0.01 0.01 0.00 0.00 0.00 0.00 0.00 0.00 0.00 0.00 0.00 0.00 0.00 0.00 0.00 0.00 0.00 0.00 0.00 0.00 0.00 0.00
0.00 0.00 0.00 0.00 0.00 0.01 0.01 0.00 0.00 0.00 0.00 0.00 0.01 0.01 0.02 0.02 0.02 0.02 0.02 0.02 0.02 0.01 0.01 0.00 0.00 0.00 0.00 0.00 0.00 0.00 0.00 0.00 0.00 0.00 0.00 0.00 0.00 0.00 0.00 0.00 0.00 0.00 0.00
0.00 0.00 0.00 0.00 0.00 0.01 0.01 0.00 0.00 0.00 0.00 0.00 0.01 0.01 0.01 0.02 0.02 0.01 0.01 0.02 0.01 0.01 0.00 0.00 0.00 0.00 0.00 0.00 0.00 0.00 0.00 0.00 0.00 0.00 0.00 0.00 0.00 0.00 0.00 0.00 0.00 0.00 0.00
MSLP
1010.03 1010.18 1010.39 1010.66 1010.98 1011.34 1011.71 1012.06 1012.38 1012.67 1012.95 1013.22 1013.51 1013.82 1014.14 1014.46 1014.74 1014.94 1015.07 1015.11 1015.10 1015.07 1015.08 1015.16 1015.33 1015.57 1015.88 1016.19 1016.47 1016.68 1016.82 1016.90 1016.92 1016.93 1016.94 1016.97 1017.02 1017.08 1017.11 1017.10 1017.05 1016.97 1016.87
1009.87 1010.10 1010.40 1010.76 1011.17 1011.59 1011.99 1012.35 1012.66 1012.92 1013.18 1013.44 1013.75 1014.10 1014.47 1014.82 1015.13 1015.35 1015.46 1015.48 1015.44 1015.39 1015.37 1015.44 1015.60 1015.84 1016.13 1016.43 1016.68 1016.86 1016.95 1016.99 1016.98 1016.97 1016.99 1017.04 1017.11 1017.18 1017.23 1017.24 1017.19 1017.09 1016.98
1009.61 1009.93 1010.34 1010.81 1011.31 1011.81 1012.25 1012.62 1012.91 1013.16 1013.39 1013.66 1013.97 1014.34 1014.74 1015.13 1015.46 1015.69 1015.80 1015.81 1015.76 1015.69 1015.67 1015.73 1015.89 1016.12 1016.39 1016.66 1016.87 1016.99 1017.04 1017.03 1017.00 1016.97 1016.99 1017.04 1017.14 1017.23 1017.30 1017.31 1017.26 1017.17 1017.05
1009.33 1009.74 1010.25 1010.83 1011.44 1012.00 1012.49 1012.87 1013.16 1013.39 1013.60 1013.84 1014.15 1014.52 1014.93 1015.34 1015.69 1015.93 1016.05 1016.07 1016.02 1015.96 1015.95 1016.01 1016.17 1016.39 1016.64 1016.87 1017.03 1017.11 1017.11 1017.05 1016.98 1016.94 1016.95 1017.01 1017.11 1017.22 1017.29 1017.31 1017.27 1017.17 1017.05
1009.08 1009.57 1010.18 1010.87 1011.56 1012.19 1012.72 1013.12 1013.40 1013.60 1013.78 1013.99 1014.28 1014.64 1015.05 1015.46 1015.81 1016.07 1016.20 1016.23 1016.20 1016.17 1016.17 1016.25 1016.42 1016.63 1016.86 1017.06 1017.18 1017.21 1017.16 1017.07 1016.97 1016.91 1016.90 1016.96 1017.06 1017.16 1017.23 1017.25 1017.21 1017.12 1017.00
1008.93 1009.48 1010.17 1010.93 1011.70 1012.38 1012.94 1013.35 1013.62 1013.80 1013.95 1014.14 1014.40 1014.73 1015.12 1015.52 1015.86 1016.12 1016.26 1016.32 1016.32 1016.31 1016.35 1016.45 1016.62 1016.83 1017.05 1017.21 1017.29 1017.29 1017.21 1017.08 1016.96 1016.88 1016.86 1016.91 1016.99 1017.08 1017.14 1017.15 1017.10 1017.01 1016.91
1008.90 1009.49 1010.23 1011.04 1011.85 1012.57 1013.14 1013.55 1013.81 1013.98 1014.11 1014.27 1014.50 1014.81 1015.17 1015.54 1015.87 1016.13 1016.28 1016.35 1016.38 1016.40 1016.47 1016.59 1016.77 1016.98 1017.18 1017.32 1017.37 1017.34 1017.23 1017.09 1016.96 1016.87 1016.84 1016.87 1016.93 1017.00 1017.04 1017.04 1016.99 1016.90 1016.81
1008.97 1009.58 1010.33 1011.16 1011.98 1012.71 1013.28 1013.70 1013.96 1014.12 1014.25 1014.40 1014.61 1014.90 1015.23 1015.58 1015.89 1016.12 1016.28 1016.36 1016.41 1016.46 1016.55 1016.69 1016.88 1017.08 1017.26 1017.38 1017.41 1017.36 1017.25 1017.10 1016.97 1016.88 1016.85 1016.87 1016.91 1016.96 1016.98 1016.96 1016.90 1016.82 1016.75
1009.10 1009.70 1010.44 1011.25 1012.05 1012.76 1013.34 1013.75 1014.03 1014.20 1014.35 1014.51 1014.72 1015.00 1015.31 1015.63 1015.91 1016.14 1016.28 1016.38 1016.44 1016.51 1016.61 1016.76 1016.95 1017.13 1017.29 1017.39 1017.41 1017.35 1017.24 1017.11 1017.00 1016.93 1016.91 1016.93 1016.97 1017.00 1017.00 1016.97 1016.91 1016.84 1016.77
1009.21 1009.78 1010.48 1011.25 1012.01 1012.70 1013.26 1013.68 1013.98 1014.19 1014.37 1014.56 1014.79 1015.07 1015.38 1015.68 1015.95 1016.15 1016.29 1016.39 1016.46 1016.55 1016.66 1016.81 1016.98 1017.15 1017.29 1017.37 1017.38 1017.32 1017.23 1017.13 1017.05 1017.02 1017.02 1017.06 1017.11 1017.14 1017.14 1017.10 1017.04 1016.97 1016.92
1009.24 1009.77 1010.42 1011.13 1011.84 1012.49 1013.03 1013.46 1013.78 1014.04 1014.27 1014.52 1014.79 1015.08 1015.39 1015.69 1015.94 1016.14 1016.28 1016.39 1016.47 1016.57 1016.69 1016.84 1017.00 1017.15 1017.27 1017.33 1017.34 1017.30 1017.23 1017.17 1017.14 1017.15 1017.21 1017.28 1017.35 1017.40 1017.41 1017.37 1017.30 1017.23 1017.18
1009.15 1009.64 1010.23 1010.88 1011.53 1012.13 1012.65 1013.08 1013.44 1013.75 1014.04 1014.34 1014.65 1014.98 1015.31 1015.61 1015.86 1016.06 1016.22 1016.34 1016.45 1016.57 1016.70 1016.86 1017.01 1017.15 1017.26 1017.31 1017.32 1017.29 1017.26 1017.25 1017.27 1017.34 1017.45 1017.57 1017.69 1017.76 1017.78 1017.75 1017.69 1017.61 1017.54
1008.95 1009.39 1009.93 1010.51 1011.09 1011.64 1012.13 1012.57 1012.96 1013.31 1013.66 1014.01 1014.37 1014.73 1015.08 1015.39 1015.67 1015.89 1016.07 1016.23 1016.38 1016.54 1016.71 1016.88 1017.04 1017.18 1017.28 1017.33 1017.34 1017.33 1017.33 1017.36 1017.44 1017.57 1017.74 1017.91 1018.07 1018.18 1018.23 1018.21 1018.15 1018.05 1017.97
1008.63 1009.04 1009.52 1010.03 1010.56 1011.07 1011.54 1011.97 1012.38 1012.78 1013.16 1013.56 1013.95 1014.34 1014.71 1015.05 1015.35 1015.61 1015.85 1016.06 1016.28 1016.49 1016.71 1016.92 1017.11 1017.25 1017.35 1017.41 1017.42 1017.43 1017.46 1017.52 1017.64 1017.82 1018.04 1018.26 1018.46 1018.61 1018.68 1018.69 1018.62 1018.52 1018.40
1008.24 1008.61 1009.04 1009.50 1009.98 1010.45 1010.91 1011.34 1011.77 1012.19 1012.60 1013.02 1013.44 1013.85 1014.24 1014.60 1014.94 1015.26 1015.56 1015.86 1016.16 1016.45 1016.74 1017.00 1017.22 1017.39 1017.50 1017.55 1017.57 1017.59 1017.62 1017.71 1017.85 1018.06 1018.31 1018.57 1018.80 1018.98 1019.09 1019.11 1019.05 1018.94 1018.79
1007.79 1008.12 1008.51 1008.93 1009.38 1009.83 1010.28 1010.73 1011.17 1011.61 1012.05 1012.48 1012.91 1013.33 1013.73 1014.13 1014.51 1014.89 1015.27 1015.66 1016.05 1016.44 1016.80 1017.13 1017.40 1017.59 1017.71 1017.77 1017.78 1017.79 1017.82 1017.90 1018.05 1018.26 1018.52 1018.79 1019.04 1019.25 1019.38 1019.42 1019.37 1019.26 1019.10
1007.29 1007.58 1007.94 1008.34 1008.77 1009.23 1009.70 1010.17 1010.64 1011.11 1011.57 1012.01 1012.45 1012.87 1013.28 1013.70 1014.13 1014.58 1015.04 1015.53 1016.01 1016.49 1016.93 1017.32 1017.63 1017.85 1017.98 1018.03 1018.04 1018.03 1018.04 1018.10 1018.22 1018.41 1018.65 1018.91 1019.17 1019.38 1019.52 1019.59 1019.56 1019.47 1019.31
1006.75 1007.00 1007.32 1007.71 1008.15 1008.64 1009.15 1009.68 1010.20 1010.71 1011.20 1011.67 1012.11 1012.54 1012.97 1013.41 1013.88 1014.38 1014.92 1015.49 1016.06 1016.61 1017.12 1017.56 1017.90 1018.14 1018.27 1018.32 1018.32 1018.29 1018.27 1018.29 1018.37 1018.52 1018.71 1018.94 1019.18 1019.38 1019.53 1019.62 1019.62 1019.56 1019.42
1006.16 1006.36 1006.65 1007.03 1007.50 1008.04 1008.63 1009.24 1009.84 1010.43 1010.98 1011.48 1011.95 1012.39 1012.83 1013.30 1013.80 1014.34 1014.94 1015.56 1016.19 1016.80 1017.35 1017.82 1018.19 1018.44 1018.57 1018.62 1018.60 1018.54 1018.49 1018.48 1018.51 1018.60 1018.74 1018.92 1019.11 1019.29 1019.44 1019.54 1019.57 1019.54 1019.45
1005.52 1005.66 1005.92 1006.31 1006.81 1007.43 1008.11 1008.83 1009.55 1010.24 1010.87 1011.43 1011.94 1012.41 1012.87 1013.35 1013.87 1014.45 1015.07 1015.73 1016.39 1017.03 1017.60 1018.08 1018.46 1018.71 1018.85 1018.89 1018.87 1018.80 1018.73 1018.68 1018.66 1018.69 1018.77 1018.88 1019.02 1019.17 1019.30 1019.40 1019.45 1019.46 1019.41
1004.85 1004.94 1005.16 1005.55 1006.10 1006.79 1007.59 1008.45 1009.30 1010.11 1010.84 1011.49 1012.05 1012.56 1013.05 1013.55 1014.08 1014.66 1015.30 1015.96 1016.62 1017.26 1017.83 1018.31 1018.68 1018.93 1019.08 1019.13 1019.12 1019.06 1018.99 1018.92 1018.87 1018.85 1018.86 1018.91 1018.98 1019.07 1019.16 1019.24 1019.31 1019.34 1019.33
1004.20 1004.22 1004.41 1004.79 1005.39 1006.16 1007.08 1008.07 1009.06 1010.01 1010.86 1011.60 1012.23 1012.78 1013.30 1013.81 1014.35 1014.93 1015.55 1016.20 1016.85 1017.46 1018.01 1018.47 1018.84 1019.09 1019.26 1019.34 1019.36 1019.34 1019.28 1019.22 1019.16 1019.10 1019.06 1019.04 1019.03 1019.05 1019.09 1019.13 1019.17 1019.21 1019.21
1003.63 1003.58 1003.72 1004.10 1004.72 1005.57 1006.59 1007.70 1008.83 1009.90 1010.87 1011.70 1012.40 1013.01 1013.55 1014.07 1014.61 1015.18 1015.78 1016.40 1017.02 1017.60 1018.13 1018.57 1018.93 1019.20 1019.39 1019.52 1019.60 1019.63 1019.62 1019.59 1019.53 1019.46 1019.38 1019.29 1019.21 1019.15 1019.11 1019.08 1019.08 1019.08 1019.08
1003.17 1003.06 1003.16 1003.52 1004.16 1005.06 1006.16 1007.37 1008.61 1009.78 1010.84 1011.75 1012.52 1013.17 1013.74 1014.28 1014.82 1015.38 1015.96 1016.56 1017.14 1017.69 1018.19 1018.62 1018.98 1019.27 1019.50 1019.68 1019.83 1019.93 1019.99 1020.01 1019.98 1019.91 1019.79 1019.65 1019.50 1019.35 1019.22 1019.11 1019.03 1018.98 1018.93
1002.84 1002.69 1002.75 1003.10 1003.75 1004.68 1005.82 1007.10 1008.40 1009.65 1010.78 1011.74 1012.56 1013.24 1013.84 1014.39 1014.94 1015.50 1016.07 1016.65 1017.22 1017.75 1018.23 1018.65 1019.01 1019.32 1019.60 1019.84 1020.05 1020.23 1020.36 1020.44 1020.45 1020.39 1020.26 1020.07 1019.86 1019.62 1019.40 1019.20 1019.03 1018.89 1018.78
1002.62 1002.45 1002.49 1002.83 1003.48 1004.43 1005.60 1006.90 1008.24 1009.52 1010.68 1011.67 1012.51 1013.22 1013.85 1014.42 1014.99 1015.56 1016.14 1016.72 1017.28 1017.80 1018.27 1018.69 1019.05 1019.38 1019.69 1019.98 1020.25 1020.49 1020.68 1020.82 1020.87 1020.83 1020.70 1020.49 1020.22 1019.92 1019.62 1019.32 1019.06 1018.83 1018.63
Thickness
5769 5767 5762 5760 5757 5755 5753 5752 5750 5749 5747 5745 5743 5741 5738 5736 5734 5733 5732 5731 5730 5731 5731 5731 5730 5729 5727 5725 5722 5720 5719 5717 5716 5716 5715 5715 5714 5714 5714 5714 5715 5715 5715
5770 5764 5759 5756 5753 5751 5749 5747 5745 5744 5742 5740 5738 5736 5734 5732 5730 5729 5728 5727 5726 5726 5726 5726 5726 5725 5723 5720 5718 5716 5714 5713 5713 5713 5712 5711 5711 5711 5710 5710 5710 5710 5710
5767 5760 5756 5752 5749 5746 5744 5742 5740 5738 5737 5735 5733 5731 5729 5727 5725 5724 5723 5722 5721 5721 5721 5721 5720 5719 5717 5715 5713 5711 5710 5710 5710 5710 5710 5709 5707 5707 5707 5707 5707 5707 5706
5763 5757 5753 5749 5745 5742 5739 5737 5735 5733 5731 5730 5728 5726 5724 5722 5720 5719 5718 5717 5716 5715 5715 5715 5714 5713 5712 5710 5708 5707 5706 5706 5706 5707 5708 5707 5705 5703 5703 5703 5703 5703 5702
5760 5754 5748 5745 5741 5737 5734 5732 5730 5728 5726 5724 5723 5721 5719 5717 5715 5714 5712 5711 5710 5710 5710 5709 5709 5708 5706 5705 5704 5703 5702 5702 5702 5703 5704 5704 5701 5700 5699 5699 5699 5698 5698
5756 5750 5743 5740 5736 5733 5730 5727 5725 5723 5721 5719 5717 5716 5714 5712 5710 5708 5707 5706 5705 5705 5705 5704 5704 5703 5702 5701 5699 5698 5698 5698 5699 5701 5701 5699 5697 5696 5695 5695 5695 5694 5694
5752 5745 5738 5735 5731 5728 5725 5722 5720 5718 5716 5714 5712 5711 5709 5707 5705 5704 5702 5701 5701 5700 5700 5700 5699 5698 5697 5696 5695 5694 5694 5695 5696 5697 5697 5694 5693 5692 5692 5691 5691 5691 5691
5748 5740 5733 5730 5727 5724 5721 5718 5716 5713 5711 5709 5708 5706 5705 5702 5701 5699 5698 5697 5696 5696 5696 5695 5695 5694 5693 5692 5691 5690 5690 5691 5693 5694 5693 5689 5688 5688 5687 5687 5686 5686 5686
5744 5736 5728 5725 5722 5719 5717 5714 5712 5709 5707 5705 5703 5702 5700 5698 5696 5695 5694 5693 5692 5692 5691 5691 5690 5689 5689 5688 5687 5687 5687 5688 5688 5689 5687 5684 5683 5683 5682 5681 5680 5680 5680
5739 5733 5726 5722 5719 5716 5713 5710 5708 5705 5703 5701 5699 5697 5695 5694 5692 5691 5690 5689 5688 5687 5687 5686 5685 5685 5684 5684 5683 5683 5684 5684 5684 5684 5680 5679 5678 5677 5676 5674 5673 5673 5672
5732 5730 5726 5722 5718 5715 5711 5708 5704 5702 5699 5697 5695 5694 5692 5691 5689 5687 5686 5685 5683 5683 5682 5682 5681 5681 5680 5680 5680 5680 5680 5680 5681 5678 5674 5673 5672 5670 5668 5667 5666 5665 5663
5724 5725 5725 5722 5718 5715 5711 5705 5702 5699 5696 5694 5692 5691 5690 5689 5688 5685 5682 5681 5680 5679 5678 5678 5677 5677 5676 5675 5675 5675 5674 5674 5674 5671 5666 5666 5665 5663 5661 5659 5658 5656 5655
5721 5722 5723 5721 5717 5714 5710 5705 5702 5699 5695 5693 5691 5689 5689 5687 5685 5682 5679 5677 5676 5674 5673 5673 5673 5673 5673 5671 5671 5669 5668 5668 5666 5663 5659 5658 5657 5655 5653 5650 5649 5648 5647
5719 5719 5719 5719 5716 5712 5709 5705 5703 5700 5696 5693 5693 5689 5688 5686 5683 5680 5677 5674 5673 5671 5670 5669 5668 5668 5667 5666 5665 5663 5661 5660 5658 5655 5651 5649 5647 5645 5643 5641 5640 5638 5637
5719 5718 5717 5716 5713 5710 5707 5704 5702 5699 5696 5694 5692 5689 5686 5683 5679 5677 5675 5672 5670 5668 5665 5664 5663 5661 5660 5659 5657 5655 5653 5652 5651 5647 5643 5640 5638 5635 5634 5632 5630 5629 5627
5720 5718 5716 5713 5711 5708 5705 5701 5699 5697 5694 5692 5688 5685 5683 5679 5675 5673 5670 5667 5664 5662 5660 5657 5655 5654 5652 5650 5649 5647 5646 5644 5642 5640 5635 5632 5629 5626 5623 5621 5620 5618 5617
5718 5717 5714 5712 5709 5706 5703 5699 5697 5695 5692 5689 5685 5682 5679 5676 5672 5669 5665 5661 5658 5656 5653 5650 5648 5646 5644 5642 5640 5639 5638 5636 5634 5632 5628 5624 5620 5616 5613 5611 5609 5608 5606
5716 5714 5713 5712 5707 5704 5700 5697 5695 5692 5689 5686 5682 5678 5675 5672 5668 5664 5659 5655 5652 5649 5645 5641 5639 5636 5634 5632 5631 5631 5630 5628 5626 5623 5620 5616 5612 5608 5604 5602 5600 5598 5596
5713 5712 5710 5709 5706 5702 5697 5694 5691 5689 5685 5682 5679 5675 5671 5668 5663 5658 5654 5650 5646 5642 5637 5634 5629 5627 5624 5622 5623 5623 5622 5620 5617 5615 5611 5608 5604 5600 5596 5593 5590 5587 5585
5712 5711 5708 5706 5703 5699 5693 5689 5685 5682 5679 5676 5673 5670 5666 5662 5658 5652 5647 5643 5639 5633 5629 5625 5620 5617 5614 5613 5615 5615 5613 5612 5609 5605 5602 5599 5595 5591 5587 5584 5581 5577 5574
5708 5707 5705 5702 5699 5695 5688 5683 5679 5674 5671 5668 5666 5664 5661 5656 5651 5645 5640 5635 5630 5625 5621 5617 5613 5609 5604 5604 5603 5603 5603 5602 5600 5596 5593 5589 5586 5582 5578 5573 5570 5566 5563
5701 5701 5701 5698 5695 5692 5687 5682 5676 5668 5662 5658 5657 5655 5653 5648 5643 5637 5632 5626 5622 5617 5613 5608 5605 5600 5595 5593 5590 5589 5588 5589 5587 5588 5583 5579 5575 5571 5567 5563 5558 5554 5551
5693 5694 5695 5693 5690 5686 5682 5675 5665 5657 5650 5646 5644 5643 5641 5638 5634 5629 5624 5619 5614 5609 5604 5599 5596 5592 5586 5582 5579 5576 5573 5571 5569 5574 5573 5570 5565 5559 5555 5550 5546 5541 5537
5685 5687 5687 5686 5684 5680 5676 5668 5662 5655 5647 5641 5637 5633 5630 5628 5624 5620 5615 5611 5606 5600 5595 5591 5587 5583 5578 5572 5569 5566 5562 5558 5553 5552 5555 5556 5553 5548 5543 5539 5534 5529 5525
5677 5677 5677 5678 5676 5673 5669 5664 5657 5650 5643 5634 5628 5624 5621 5618 5615 5611 5607 5603 5597 5591 5586 5582 5576 5573 5568 5563 5559 5555 5552 5548 5544 5537 5535 5537 5536 5533 5529 5526 5522 5518 5514
5665 5665 5666 5666 5666 5665 5661 5657 5651 5645 5637 5628 5622 5617 5612 5609 5606 5602 5599 5594 5589 5582 5577 5572 5567 5562 5557 5553 5548 5544 5540 5535 5531 5525 5521 5521 5519 5519 5516 5512 5509 5505 5501